Flag for Ukraine Weather past 2 weeks in Odesa, Ukraine

Now
77 °F

Sunny.


Feels Like: 79 °F
Forecast: 68 / 86 °F
Wind: 8 mph from East

Location: Odesa Airport

Current Time: Jul 30, 2014 at 8:37:49 AM

Latest Report: Jul 30, 2014 at 8:00 AM


Visibility: 10 mi

Pressure: 29.92 "Hg

Humidity: 54%

Dew point: 59 °F

Location of OdesaLocation

Historic Weather in Odesa — Graph

°F

Odesa temperature yesterday

Maximum temperature yesterday: 88 °F (at 2:00 PM)
Minimum temperature yesterday: 66 °F (at 5:30 AM)
Average temperature yesterday: 78 °F

Past Weeks' High & Low Weather Summary

 TemperatureHumidityPressure
High93 °F (Jul 26, 3:00 PM)100% (Jul 17, 1:00 PM)30.04 "Hg (Jul 17, 1:00 PM)
Low64 °F (Jul 21, 5:00 AM)24% (Jul 26, 3:00 PM)29.74 "Hg (Jul 24, 5:30 AM)
Average77 °F60%29.86 "Hg
* Reported Jul 15 7:00 AM — Jul 30 7:30 AM, Odesa, Weather by CustomWeather, © 2014

Note: Actual official high and low records may vary slightly from our data, if they occured in-between our weather recording intervals... More about our weather records

Advertising

Odesa weather history for previous 24 hours

 ConditionsComfort  
Time TempWeatherWind HumidityBarometerVisibility
7:30 AM
Jul 30
75 °FPassing clouds.8 mph61%29.92 "HgN/A
7:00 AM73 °FSunny.3 mph74%29.92 "Hg10 mi
6:30 AM70 °FClear.3 mph83%29.92 "Hg10 mi
6:00 AM68 °FClear.3 mph88%29.89 "Hg10 mi
5:30 AM68 °FClear.3 mph88%29.89 "Hg10 mi
5:00 AM66 °FClear.3 mph88%29.89 "Hg10 mi
4:30 AM68 °FClear.No wind88%29.92 "Hg10 mi
4:00 AM68 °FClear.1 mph88%29.92 "Hg10 mi
3:30 AM70 °FClear.3 mph88%29.92 "Hg10 mi
3:00 AM70 °FClear.1 mph78%29.92 "Hg10 mi
2:30 AM68 °FClear.3 mph73%29.92 "Hg10 mi
2:00 AM68 °FClear.3 mph73%29.92 "Hg10 mi
1:30 AM70 °FClear.3 mph73%29.92 "Hg10 mi
1:00 AM70 °FClear.3 mph69%29.89 "Hg10 mi
12:30 AM72 °FClear.3 mph65%29.89 "Hg10 mi
12:00 AM72 °FClear.No wind65%29.92 "Hg10 mi
11:30 PM
Jul 29
72 °FClear.No wind65%29.92 "Hg10 mi
11:00 PM73 °FClear.No wind57%29.89 "Hg10 mi
10:30 PM73 °FClear.No wind57%29.89 "Hg10 mi
10:00 PM73 °FClear.No wind53%29.89 "Hg10 mi
9:30 PM75 °FSunny.No wind54%29.89 "Hg10 mi
9:00 PM75 °FSunny.3 mph54%29.89 "Hg10 mi
8:30 PM79 °FSunny.6 mph48%29.89 "Hg10 mi
8:00 PM79 °FSunny.6 mph51%29.89 "Hg10 mi
7:30 PM82 °FSunny.6 mph37%29.89 "Hg10 mi
7:00 PM82 °FSunny.3 mph37%29.89 "Hg10 mi
6:30 PM84 °FSunny.1 mph33%29.92 "Hg10 mi
6:00 PM86 °FSunny.1 mph29%29.92 "Hg10 mi
5:30 PM88 °FSunny.6 mph29%29.92 "Hg10 mi
5:00 PM88 °FPassing clouds.8 mph27%29.92 "HgN/A
4:30 PM88 °FSunny.10 mph27%29.92 "Hg10 mi
4:00 PM88 °FPassing clouds.8 mph25%29.92 "HgN/A
3:30 PM88 °FPassing clouds.6 mph25%29.92 "HgN/A
3:00 PM88 °FPassing clouds.8 mph25%29.92 "HgN/A
2:30 PM88 °FPassing clouds.10 mph27%29.92 "HgN/A
2:00 PM88 °FPassing clouds.10 mph29%29.95 "HgN/A
1:30 PM86 °FPassing clouds.10 mph29%29.95 "HgN/A
1:00 PM86 °FPassing clouds.10 mph33%29.95 "HgN/A
12:30 PM84 °FPassing clouds.8 mph33%29.95 "HgN/A
12:00 PM84 °FPassing clouds.8 mph35%29.95 "HgN/A
11:30 AM82 °FPassing clouds.10 mph37%29.95 "HgN/A
11:00 AM82 °FPassing clouds.8 mph35%29.95 "HgN/A
10:30 AM81 °FPassing clouds.8 mph37%29.95 "HgN/A
10:00 AM81 °FPassing clouds.10 mph34%29.95 "HgN/A
9:30 AM81 °FPassing clouds.10 mph34%29.95 "HgN/A
9:00 AM77 °FPassing clouds.10 mph42%29.95 "HgN/A
8:30 AM77 °FPassing clouds.8 mph44%29.95 "HgN/A
8:00 AM75 °FPassing clouds.6 mph47%29.95 "HgN/A
Weather by CustomWeather, © 2014

See weather overviewHow to use our weather pages